Flag for Canada Weather past 2 weeks in Thompson, Manitoba, Canada

36 °F

Light rain. Mostly cloudy.

Feels Like: 31 °F
Forecast: 35 / 46 °F
Wind: 6 mph from East

Location: Thompson

Current Time: Oct 9, 2015 at 8:46:20 PM

Latest Report: Oct 9, 2015 at 8:00 PM

Visibility: 10 mi

Pressure: 29.76 "Hg

Humidity: 93%

Dew point: 34 °F

Location of ThompsonLocation

Historic Weather in Thompson — Graph


Thompson temperature yesterday

Maximum temperature yesterday: 48 °F (at 12:00 PM)
Minimum temperature yesterday: 25 °F (at 11:00 PM)
Average temperature yesterday: 38 °F

Past Weeks' High & Low Weather Summary

High68 °F (Oct 1, 4:00 PM)100% (Sep 26, 12:00 AM)30.43 "Hg (Sep 26, 12:00 AM)
Low21 °F (Oct 9, 1:00 AM)34% (Sep 27, 4:00 PM)29.50 "Hg (Sep 27, 6:00 PM)
Average45 °F77%30.05 "Hg
* Reported Sep 24 7:00 PM — Oct 9 7:00 PM, Thompson, Weather by CustomWeather, © 2015

Note: Actual official high and low records may vary slightly from our data, if they occured in-between our weather recording intervals... More about our weather records


Thompson weather history for previous 24 hours

Time TempWeatherWind HumidityBarometerVisibility
7:00 PM
Fri, Oct 9
36 °FLight rain. Mostly cloudy.6 mph93%29.79 "Hg10 mi
6:00 PM36 °FLight rain. Mostly cloudy.7 mph93%29.80 "Hg5 mi
5:00 PM34 °FMostly cloudy.7 mph93%29.83 "Hg7 mi
4:00 PM34 °FLight rain. Mostly cloudy.6 mph93%29.87 "Hg5 mi
3:00 PM32 °FSleet. Mostly cloudy.7 mph100%29.91 "Hg4 mi
2:00 PM32 °FMostly cloudy.5 mph100%29.98 "Hg7 mi
1:00 PM32 °FLight snow. Overcast.6 mph93%30.02 "Hg1 mi
12:00 PM32 °FLight snow. Mostly cloudy.6 mph87%30.07 "Hg4 mi
11:00 AM32 °FLight snow. Mostly cloudy.5 mph87%30.10 "Hg5 mi
10:00 AM32 °FLight snow. Overcast.No wind80%30.14 "Hg5 mi
9:00 AM28 °FOvercast.2 mph86%30.14 "Hg15 mi
8:00 AM27 °FPassing clouds.No wind93%30.16 "Hg15 mi
7:00 AM23 °FPartly cloudy.2 mph100%30.19 "Hg15 mi
6:00 AM23 °FPassing clouds.2 mph93%30.20 "Hg15 mi
5:00 AM27 °FOvercast.No wind86%30.21 "Hg15 mi
4:00 AM27 °FOvercast.No wind93%30.22 "Hg15 mi
3:00 AM25 °FPassing clouds.No wind93%30.21 "Hg15 mi
2:00 AM23 °FPassing clouds.No wind93%30.21 "Hg15 mi
1:00 AM21 °FPassing clouds.No wind93%30.20 "Hg15 mi
12:00 AM23 °FPassing clouds.No wind93%30.21 "Hg15 mi
11:00 PM
Thu, Oct 8
25 °FPassing clouds.No wind86%30.22 "Hg15 mi
10:00 PM27 °FClear.No wind80%30.21 "Hg15 mi
9:00 PM28 °FClear.5 mph80%30.20 "Hg15 mi
8:00 PM32 °FPassing clouds.6 mph69%30.18 "Hg15 mi
Weather by CustomWeather, © 2015

See weather overviewHow to use our weather pages